Regional Weather Roundup
Issued by NWS Charleston, SC

Current Version | Previous Version | Graphics & Text | Print | Product List | Glossary On
Versions: 1 2 3 4 5 6 7 8 9 10 11 12 13 14 15 16 17 18 19 20 21 22 23 24 25 26 27 28 29 30 31 32 33 34 35 36 37 38 39 40 41 42 43 44 45 46 47 48 49 50
000 ASUS42 KCHS 010227 RWRCHS REGIONAL WEATHER ROUNDUP NATIONAL WEATHER SERVICE CHARLESTON SC 1000 PM EDT FRI JUL 31 2015 NOTE: "FAIR" INDICATES FEW OR NO CLOUDS BELOW 12,000 FEET WITH NO SIGNIFICANT WEATHER AND/OR OBSTRUCTIONS TO VISIBILITY. NOT ALL STATIONS ARE QUALITY CONTROLLED BY THE NATIONAL WEATHER SERVICE. USE DATA WITH CAUTION...ESPECIALLY DEWPOINT OBSERVATIONS. SCZ027-030-031-034>040-042>050-010300- ...SOUTHEAST SOUTH CAROLINA... CITY SKY/WX TMP DP RH WIND PRES REMARKS N CHARLESTON CLOUDY 80 75 84 CALM 29.95R WATERFRONT PRK N/A 83 78 84 S5 29.91R HX 93 MOUNT PLEASANT LGT RAIN 81 79 94 CALM 29.95R JOHNS ISLAND MOCLDY 82 79 89 S3 29.95S HX 93 PINOPOLIS NOT AVBL MONCKS CORNER FAIR 77 73 88 CALM 29.95R SUMMERVILLE FAIR 77 77 100 CALM 29.96S BEAUFORT MCAS CLOUDY 77 75 93 SW3 29.94R BEAUFORT ARPT FAIR 79 75 89 CALM 29.94R FOG HILTON HEAD IS CLOUDY 81 79 94 S5 29.95R WALTERBORO MOCLDY 79 75 89 CALM 29.96R ALLENDALE MOCLDY 79 73 83 CALM 29.94S ...SOUTHERN MIDLANDS AND PEE DEE... CITY SKY/WX TMP DP RH WIND PRES REMARKS GEORGETOWN NOT AVBL KINGSTREE NOT AVBL ORANGEBURG PTCLDY 77 73 87 CALM 29.95R BARNWELL FAIR 81 73 78 CALM 29.96R AIKEN FAIR 81 70 69 SW5 29.98R MANNING LGT RAIN 77 70 78 CALM 29.95S COLUMBIA PTCLDY 84 70 62 SW3 29.93R SUMTER MOCLDY 82 72 71 SE5 29.93R FLORENCE PTCLDY 79 71 76 SW5 29.93S MYRTLE BEACH MOCLDY 79 72 78 VRB7 29.95F N MYRTLE BEACH CLOUDY 76 74 93 N3 29.93F $$ GAZ063-065-086>088-099>101-113>116-118-119-134>141-150-010300- ...SOUTHEAST GEORGIA... CITY SKY/WX TMP DP RH WIND PRES REMARKS SAVANNAH ARPT CLOUDY 77 74 90 SE6 29.94S HUNTER AAF CLOUDY 79 75 89 S5 29.92R FORT STEWART CLOUDY 77 77 100 S2 29.91R STATESBORO CLOUDY 75 32 20 CALM 29.95R SYLVANIA CLOUDY 76 75 97 CALM 29.96R CLAXTON NOT AVBL ...CSRA...CENTRAL AND FAR SOUTHEAST GEORGIA... CITY SKY/WX TMP DP RH WIND PRES REMARKS THOMSON MOCLDY 81 75 81 S3 29.99R AUGUSTA-BUSH MOCLDY 80 72 76 S7 29.93R AUGUSTA-DANIEL MOCLDY 83 72 69 SE6 29.94R SWAINSBORO FAIR N/A N/A N/A SE3 29.96R VIDALIA CLOUDY 75 72 88 CALM 29.95R EASTMAN FAIR 75 75 100 CALM 29.97R FOG HAZLEHURST FAIR 79 76 90 CALM 29.94R ALMA CLOUDY 77 73 87 S5 29.94R WAYCROSS CLOUDY 78 77 96 S3 29.91R JESUP FAIR 79 77 94 CALM 29.95R BAXLEY FAIR 79 73 83 CALM 29.94R BRUNSWICK CLOUDY 77 73 88 CALM 29.95S SAINT SIMONS CLOUDY 77 73 87 W6 29.94R $$ SCZ027-028-034-036>038-045-046-048>050-GAZ119-141-010300- ...LAKE AND SUPPLEMENTAL COASTAL OBSERVATIONS... STATION/POSITION TIME TEMP WIND PRES WAVE SWELL AIR SEA DIR/SP/G HT/PER HT/PER/DIR (UTC) (F) (DEG/KT/KT) (MB) (FT/S) (FT/S/D) UPR LAKE MARION NOT AVBL WINYAH BAY 0100 81 320/ 6 1013.0 LAKE MURRAY 0100 89 340/ 1/ 4 1012.2R ACE BASIN NERRS NOT AVBL FORT PULASKI 0200 82 86 210/ 9/ 14 1014.4R SAPELO ISLAND 0200 79 220/ 7 1014.0R $$ ANZ835-935-AMZ111-154-330-350-352-354-370-450-454-472-010300- ...C-MAN AND BUOY OBSERVATIONS... STATION/POSITION TIME TEMP WIND PRES WAVE SWELL AIR SEA DIR/SP/G HT/PER HT/PER/DIR (UTC) (F) (DEG/KT/KT) (MB) (FT/S) (FT/S/D) BUOY 41004 0150 83 84 210/ 14/ 16 1013.6R 3/ 8 2/ 8 BUOY 41008 0150 79 83 240/ 16/ 17 1013.6R 3/ 4 2/110/ 8 FOLLY BEACH CMAN 0200 82 210/ 13/ 14 1014.4R CAPERS NEARSHORE 0108 82 220/ 14/ 17 1013.7R FRIPP NEARSHORE 0100 83 200/ 12/ 14 1013.1R STATION/POSITION TIME TEMP WIND PRES WAVE SWELL AIR SEA DIR/SP/G HT/PER HT/PER/DIR (UTC) (F) (DEG/KT/KT) (MB) (FT/S) (FT/S/D) 5E ST. MARYS GA 0121 84 N/A 3/ 4 FRYING PAN BUOY 0150 84 84 220/ 17/ 19 1014.1R 4/ 7 2/150/ 7 BUOY 41025 0150 81 85 10/ 4/ 6 1013.9R 4/ 9 3/170/ 9 CAPE LOOKOUT NC 0200 79 270/ 5/ 6 1013.3R BUOY 41002 0150 82 81 240/ 17/ 21 1015.4R 8/ 8 BUOY 41010 0120 78 84 270/ 21/ 23 1016.3R ST AUGUSTINE FL 0200 81 82 210/ 5/ 7 1015.5R $$

USA.gov is the U.S. government's official web portal to all federal, state and local government web resources and services.